Weather in Kitskovo

Russia / Pskov Oblast     56°24′34″N   28°47′54″E
temp.,
°C
wind,
m/s
gust,
m/s
humid.,
%
clouds,
%
prec.,
mm/h
press.,
hPa
HPBL,
m
28 september, tue
tue2800:00+9ene2584100 0.0 1029163
03:00+8ne2687100 0.0 1030156
06:00+7ne268861 0.0 1030185
09:00+8ne25825 0.0 1030223
12:00+12e34605 0.0 10311085
15:00+12e3457100 0.0 10311439
18:00+10e2673100 0.0 1032333
21:00+9ese2682100 0.0 1033304
29 september, wed
wed2900:00+8ese378496 0.0 1034353
03:00+6ese379261 0.0 1035196
06:00+4ese269627 0.0 1035136
09:00+6se378041 0.0 1036252
12:00+11sse34578 0.0 10361030
15:00+12se34495 0.0 10341286
18:00+10se25655 0.0 1034100
21:00+5se27805 0.0 1034124
30 september, thu
thu3000:00+4se26855 0.0 1035130
03:00+3se27895 0.0 1035144
06:00+3se27935 0.0 1034151
09:00+5se38785 0.0 1034270
12:00+11sse47585 0.0 1034863
15:00+13sse47515 0.0 10321131
18:00+10sse37665 0.0 1032202
21:00+6sse310845 0.0 1032201
1 october, fri
fri100:00+5sse39896 0.0 1033180
03:00+4sse299238 0.0 1033175
06:00+4sse389326 0.0 1033159
09:00+7s397841 0.0 1033267
12:00+12s465652 0.0 1032633
15:00+14s3553100 0.0 1032928
18:00+11sse237159 0.0 103148
21:00+7sse278516 0.0 1031126
2 october, sat
sat200:00+6sse278995 0.0 1031140
03:00+7sse388456 0.0 1031208
06:00+5sse279350 0.0 1030145
09:00+7sse3878100 0.0 1030259
12:00+11s4761100 0.0 1029556
15:00+13s4754100 0.0 1028943
18:00+11sse4964100 0.0 1027430
21:00+10sse41273100 0.0 1027474